Погода в Бирюле

Россия / Республика Алтай     51°46′45″N   86°03′27″E
темп.,
°C
ветер,
м/с
пор.,
м/с
влажн.,
%
обл.,
%
осадки,
мм/ч
давл.,
гПа
погр.,
м
6 августа, пт
пт601:00+12ю249754 1.9 100977
04:00+10ю349736 0.1 100970
07:00+10ю249830 0.8 100992
10:00+16зсз248569 0.9 1009557
13:00+15зюз1391100 2.4 1010386
16:00+15ююз128793 0.9 1010276
19:00+16юз1280100 1.2 1010451
22:00+12ю229242 0.1 101234
7 августа, сб
сб701:00+10ю239617 0.1 101258
04:00+9ю2396100 0.0 101159
07:00+11ю2489100 0.0 101288
10:00+18ююз225888 0.0 1011472
13:00+23с114367 0.0 10091664
16:00+23ссв324178 0.0 10092142
19:00+19с117295 0.1 101018
22:00+14ююв118954 0.2 101111
8 августа, вс
вс801:00+12ю229510 0.2 101137
04:00+11ю23955 0.0 101049
07:00+11ю24915 0.0 101072
10:00+20ююз11585 0.0 1009482
13:00+24с11445 0.0 10081465
16:00+25с224122 0.0 10072014
19:00+22ссв24635 0.0 1008231
22:00+15юв11845 0.0 100811
9 августа, пн
пн901:00+14ю22895 0.0 100842
04:00+13ю23932 0.0 100751
07:00+13ю23874 0.0 100771
10:00+22ю22555 0.0 1005447
13:00+28ююз123927 0.0 10041090
16:00+29ссв223183 0.0 10021786
19:00+14юв3699100 18.1 1008230
22:00+13ю4797100 0.3 1007143
10 августа, вт
вт1001:00+13ю35975 0.3 100696
04:00+12ю35971 0.0 100790
07:00+12ю359578 0.0 100888
10:00+20юз12606 0.0 1008361
13:00+24с334538 0.0 10071500
16:00+21св366712 0.1 1007309
19:00+16св019142 2.7 100935
22:00+12ю229796 0.2 101025